N7BDR Weather Reports


Display with metric or nautical units.
time (UTC)temp
F
wind
direction
speed
MPH
gust
MPH
rain 1hr
in
rain 24hr
in
rain mn
in
humidity
%
barometer
mb
20260507062851 53 225 0.0 6.0 0.00 0.16 0.00 41 1017.3
20260507062342 52 246 0.0 3.0 0.00 0.16 0.00 41 1017.3
20260507061215 51 252 0.0 0.0 0.00 0.16 0.00 41 1017.4
20260507060658 51 241 0.0 0.0 0.00 0.16 0.00 42 1017.3
20260507060140 51 251 0.0 0.0 0.00 0.16 0.00 42 1017.3
20260507055639 51 251 0.0 0.0 0.00 0.16 0.16 41 1017.4
20260507055148 51 250 0.0 0.0 0.00 0.16 0.16 41 1017.3
20260507054642 52 245 0.0 0.0 0.00 0.16 0.16 40 1017.3
20260507054134 52 234 0.0 1.0 0.00 0.16 0.16 39 1017.2
20260507053617 52 206 1.0 4.0 0.00 0.16 0.16 39 1017.2
20260507053126 52 206 1.0 3.0 0.00 0.16 0.16 40 1017.2
20260507052624 51 224 0.0 3.0 0.00 0.16 0.16 41 1017.3
20260507052114 51 61 0.0 1.0 0.00 0.16 0.16 42 1017.3
20260507051622 51 61 0.0 0.0 0.00 0.16 0.16 43 1017.3
20260507051108 51 61 0.0 0.0 0.00 0.16 0.16 43 1017.2
20260507050604 51 303 0.0 0.0 0.00 0.16 0.16 43 1017.3
20260507044816 52 303 0.0 0.0 0.00 0.16 0.16 39 1017.5
20260507044320 52 303 0.0 0.0 0.00 0.16 0.16 39 1017.5
20260507043820 52 303 0.0 0.0 0.00 0.16 0.16 39 1017.5
20260507043322 52 303 0.0 0.0 0.00 0.16 0.16 38 1017.3
20260507042823 52 303 0.0 0.0 0.00 0.16 0.16 38 1017.3
20260507042322 53 303 0.0 0.0 0.00 0.16 0.16 37 1017.3
20260507041824 53 303 0.0 0.0 0.00 0.16 0.16 37 1017.3
20260507041310 54 304 0.0 0.0 0.00 0.16 0.16 35 1017.3
20260507040819 54 270 0.0 0.0 0.00 0.16 0.16 35 1017.2
20260507040300 54 270 0.0 0.0 0.00 0.16 0.16 35 1017.3
20260507035804 54 270 0.0 0.0 0.00 0.16 0.16 35 1017.3
20260507035307 54 261 0.0 1.0 0.00 0.16 0.16 34 1017.3
20260507034128 55 271 0.0 0.0 0.00 0.16 0.16 35 1017.3
20260507033631 55 271 0.0 0.0 0.00 0.16 0.16 34 1017.3
20260507033120 55 271 0.0 0.0 0.00 0.16 0.16 34 1017.2
20260507032628 55 268 0.0 0.0 0.00 0.16 0.16 33 1017.1
20260507032115 55 263 0.0 0.0 0.00 0.16 0.16 33 1017.1
20260507031557 55 256 0.0 0.0 0.00 0.16 0.16 33 1016.9
20260507031046 55 256 0.0 0.0 0.00 0.16 0.16 32 1016.8
20260507025915 56 267 0.0 0.0 0.00 0.16 0.16 33 1016.7
20260507025418 56 322 0.0 0.0 0.00 0.16 0.16 31 1016.7
20260507024919 56 322 0.0 0.0 0.00 0.16 0.16 32 1016.7
20260507024403 57 322 0.0 0.0 0.00 0.16 0.16 31 1016.7
20260507023904 57 322 0.0 0.0 0.00 0.16 0.16 29 1016.8
20260507023345 58 322 0.0 0.0 0.00 0.16 0.16 28 1016.7
20260507022831 58 322 0.0 0.0 0.00 0.16 0.16 28 1016.8
20260507022338 59 322 0.0 0.0 0.00 0.16 0.16 28 1016.8
20260507021843 60 322 0.0 0.0 0.00 0.16 0.16 25 1016.8
20260507021350 60 322 0.0 0.0 0.00 0.16 0.16 24 1016.8
20260507020831 61 322 0.0 0.0 0.00 0.16 0.16 24 1016.8
20260507020329 61 335 0.0 0.0 0.00 0.16 0.16 24 1016.7
20260507015147 61 340 0.0 2.0 0.00 0.16 0.16 22 1016.8
20260507014645 61 337 0.0 1.0 0.00 0.16 0.16 24 1016.9
20260507014137 62 346 0.0 1.0 0.00 0.16 0.16 22 1016.9
20260507013636 62 328 0.0 0.0 0.00 0.16 0.16 23 1016.9
20260507013133 62 304 0.0 0.0 0.00 0.16 0.16 23 1017.0
20260507012619 62 303 0.0 0.0 0.00 0.16 0.16 23 1016.9
20260507012117 62 304 0.0 0.0 0.00 0.16 0.16 23 1016.9
20260507010445 63 310 0.0 0.0 0.00 0.16 0.16 22 1017.0
20260507005310 63 324 0.0 4.0 0.00 0.16 0.16 23 1017.1
20260507004752 63 290 0.0 0.0 0.00 0.16 0.16 23 1017.0
20260507004250 63 277 0.0 3.0 0.00 0.16 0.16 23 1017.1
20260507003735 63 314 0.0 2.0 0.00 0.16 0.16 23 1017.0
20260507003244 63 279 0.0 0.0 0.00 0.16 0.16 23 1017.1
20260507002735 63 257 1.0 7.0 0.00 0.16 0.16 22 1017.1
20260507002242 63 261 2.0 7.0 0.00 0.16 0.16 22 1017.1
20260507001746 63 330 2.0 7.0 0.00 0.16 0.16 22 1017.0
20260507001240 63 308 2.0 6.0 0.00 0.16 0.16 23 1016.9
20260507000723 63 354 2.0 6.0 0.00 0.16 0.16 23 1016.9
20260507000229 63 334 2.0 6.0 0.00 0.16 0.16 22 1016.8
20260506235107 63 331 1.0 8.0 0.00 0.16 0.16 22 1016.9
20260506233945 63 341 2.0 10.0 0.00 0.16 0.16 21 1017.0
20260506233426 63 62 2.0 10.0 0.00 0.16 0.16 22 1017.0
20260506232907 63 322 3.0 10.0 0.00 0.16 0.16 22 1017.0
20260506232352 63 318 3.0 9.0 0.00 0.16 0.16 23 1016.9
20260506231850 64 327 2.0 9.0 0.00 0.16 0.16 24 1016.9
20260506230707 64 305 2.0 7.0 0.00 0.16 0.16 22 1017.0
20260506230202 65 336 1.0 7.0 0.00 0.16 0.16 21 1017.0
20260506225704 65 307 1.0 7.0 0.00 0.16 0.16 23 1017.1
20260506224528 64 272 1.0 12.0 0.00 0.16 0.16 23 1017.1
20260506224034 63 261 2.0 12.0 0.00 0.16 0.16 23 1017.1
20260506223524 63 310 2.0 12.0 0.00 0.16 0.16 23 1017.1
20260506223027 64 300 2.0 10.0 0.00 0.16 0.16 23 1017.3
20260506222532 64 297 3.0 16.0 0.00 0.16 0.16 24 1017.3
20260506222035 63 308 3.0 16.0 0.00 0.16 0.16 23 1017.4
20260506215621 63 263 3.0 12.0 0.00 0.17 0.16 23 1017.5
20260506215129 63 308 3.0 13.0 0.00 0.17 0.16 24 1017.6
20260506214630 62 305 4.0 13.0 0.00 0.17 0.16 24 1017.6
20260506213508 62 313 1.0 14.0 0.00 0.17 0.16 24 1017.8
20260506213014 62 301 3.0 14.0 0.00 0.17 0.16 25 1017.9
20260506212520 62 272 4.0 14.0 0.00 0.17 0.16 25 1018.0
20260506212028 62 344 2.0 10.0 0.00 0.17 0.16 26 1018.0
20260506211531 62 330 2.0 10.0 0.00 0.17 0.16 24 1018.1
20260506211040 61 253 2.0 10.0 0.00 0.17 0.16 26 1018.0
20260506205905 61 341 2.0 9.0 0.00 0.17 0.16 26 1017.9
20260506205352 62 350 1.0 9.0 0.00 0.17 0.16 25 1018.1
20260506204234 61 339 1.0 11.0 0.00 0.17 0.16 26 1018.0
20260506203721 61 303 2.0 11.0 0.00 0.17 0.16 27 1018.1
20260506203224 61 340 1.0 11.0 0.00 0.17 0.16 27 1018.1
20260506202723 61 287 2.0 10.0 0.00 0.17 0.16 27 1018.1
20260506202215 60 296 2.0 10.0 0.00 0.17 0.16 29 1018.1
20260506201703 60 20 1.0 9.0 0.00 0.17 0.16 26 1018.1
20260506201154 60 320 2.0 9.0 0.00 0.17 0.16 28 1018.2
20260506200636 60 307 2.0 9.0 0.00 0.17 0.16 26 1018.2
20260506200127 61 258 2.0 9.0 0.00 0.17 0.16 27 1018.2
20260506195029 59 310 1.0 11.0 0.00 0.17 0.16 28 1018.2
20260506193908 59 332 2.0 11.0 0.00 0.17 0.16 28 1018.0
20260506192755 59 320 4.0 14.0 0.00 0.17 0.16 30 1018.1
20260506191601 59 357 5.0 17.0 0.00 0.17 0.16 25 1018.0
20260506191052 58 344 5.0 17.0 0.00 0.17 0.16 25 1018.0
20260506190543 58 356 6.0 17.0 0.00 0.17 0.16 24 1018.1
20260506190036 58 321 6.0 17.0 0.00 0.17 0.16 24 1018.1
20260506185517 58 329 5.0 13.0 0.00 0.17 0.16 25 1018.0
20260506185001 57 324 4.0 13.0 0.00 0.17 0.16 26 1018.1
20260506183852 57 349 5.0 13.0 0.00 0.17 0.16 26 1018.3
20260506183359 57 322 3.0 10.0 0.00 0.17 0.16 25 1018.4
20260506182901 57 341 2.0 9.0 0.00 0.17 0.16 28 1018.3
20260506182350 56 335 4.0 9.0 0.00 0.17 0.16 28 1018.4
20260506181224 56 343 3.0 9.0 0.00 0.17 0.16 30 1018.3
20260506180732 56 350 4.0 9.0 0.00 0.17 0.16 30 1018.4
20260506180224 56 323 5.0 14.0 0.00 0.17 0.16 28 1018.4
20260506175730 55 315 5.0 14.0 0.00 0.17 0.16 27 1018.3
20260506175236 55 21 5.0 14.0 0.00 0.17 0.16 26 1018.3
20260506174735 55 73 5.0 14.0 0.00 0.17 0.16 23 1018.3
20260506174239 55 334 4.0 13.0 0.00 0.17 0.16 25 1018.2
20260506173729 55 329 5.0 13.0 0.00 0.17 0.16 26 1018.3
20260506173216 55 346 4.0 13.0 0.00 0.17 0.16 29 1018.2
20260506172717 55 70 3.0 11.0 0.00 0.17 0.16 29 1018.1
20260506172220 54 319 4.0 11.0 0.00 0.17 0.16 29 1018.0
20260506171721 54 324 4.0 13.0 0.00 0.17 0.16 30 1018.0
20260506171209 54 337 4.0 13.0 0.00 0.17 0.16 30 1018.0
20260506170714 54 341 4.0 13.0 0.00 0.17 0.16 30 1018.0
20260506170201 54 336 4.0 13.0 0.00 0.17 0.16 33 1017.8
20260506165654 54 358 4.0 10.0 0.00 0.17 0.16 31 1017.8
20260506165154 54 336 3.0 10.0 0.00 0.17 0.16 32 1017.6
20260506164638 54 336 4.0 9.0 0.00 0.17 0.16 34 1017.7
20260506164126 54 339 4.0 9.0 0.00 0.17 0.16 30 1017.5
20260506163626 54 77 4.0 9.0 0.00 0.17 0.16 30 1017.4
20260506163110 53 343 4.0 10.0 0.00 0.17 0.16 34 1017.4
20260506162618 53 338 5.0 10.0 0.00 0.17 0.16 34 1017.3
20260506161437 53 346 5.0 11.0 0.00 0.17 0.16 34 1017.1
20260506160921 53 343 5.0 11.0 0.00 0.17 0.16 33 1017.0
20260506160408 53 14 5.0 11.0 0.00 0.17 0.16 33 1017.0
20260506155901 53 321 5.0 10.0 0.00 0.17 0.16 32 1016.9
20260506155411 52 45 5.0 10.0 0.00 0.17 0.16 39 1016.9
20260506154904 53 358 3.0 10.0 0.00 0.17 0.16 39 1016.7
20260506154354 52 339 3.0 12.0 0.00 0.17 0.16 39 1016.6
20260506153855 52 324 4.0 12.0 0.00 0.17 0.16 38 1016.6
20260506153346 51 326 5.0 12.0 0.00 0.17 0.16 38 1016.5
20260506152836 52 350 5.0 12.0 0.00 0.17 0.16 40 1016.5
20260506152321 51 335 5.0 10.0 0.00 0.17 0.16 39 1016.5
20260506151815 52 20 4.0 12.0 0.00 0.17 0.16 40 1016.4
20260506151302 52 352 5.0 12.0 0.00 0.17 0.16 40 1016.4
20260506150118 51 348 5.0 12.0 0.00 0.17 0.16 38 1016.2
20260506145604 52 343 3.0 9.0 0.00 0.17 0.16 38 1016.1
20260506145111 52 315 3.0 8.0 0.00 0.17 0.16 46 1015.8
20260506144612 52 341 3.0 8.0 0.00 0.17 0.16 45 1015.9
20260506144100 51 337 3.0 7.0 0.00 0.17 0.16 49 1015.9
20260506143547 51 327 4.0 7.0 0.00 0.17 0.16 49 1015.9
20260506143046 51 329 3.0 7.0 0.00 0.17 0.16 48 1015.7
20260506142531 51 324 2.0 6.0 0.00 0.17 0.16 48 1015.8
20260506142036 51 330 1.0 4.0 0.00 0.17 0.16 51 1015.6
20260506141522 50 334 1.0 4.0 0.00 0.17 0.16 49 1015.5
20260506141024 50 322 0.0 4.0 0.00 0.17 0.16 51 1015.4
20260506140527 50 334 0.0 0.0 0.00 0.17 0.16 54 1015.5
20260506134731 48 334 0.0 0.0 0.00 0.17 0.16 57 1015.4
20260506133619 46 328 0.0 0.0 0.00 0.17 0.16 65 1015.3
20260506133127 45 328 0.0 0.0 0.00 0.17 0.16 68 1015.2
20260506132626 44 328 0.0 0.0 0.00 0.17 0.16 71 1015.1
20260506131452 42 290 0.0 0.0 0.00 0.17 0.16 75 1014.7
20260506130936 42 294 0.0 0.0 0.00 0.17 0.16 75 1014.5
20260506130418 41 296 0.0 0.0 0.00 0.17 0.16 75 1014.5
20260506125305 40 266 0.0 0.0 0.00 0.17 0.16 76 1014.1
20260506124750 41 269 0.0 0.0 0.00 0.17 0.16 75 1014.1
20260506124248 41 270 0.0 0.0 0.00 0.17 0.16 74 1014.1
20260506123736 41 270 0.0 0.0 0.00 0.17 0.16 72 1013.9
20260506123241 41 270 0.0 0.0 0.00 0.17 0.16 71 1013.8
20260506122728 42 270 0.0 0.0 0.00 0.17 0.16 70 1013.8
20260506115649 44 268 0.0 0.0 0.00 0.17 0.16 65 1013.5
20260506114524 44 269 0.0 0.0 0.00 0.17 0.16 65 1013.5
20260506114007 44 239 0.0 0.0 0.00 0.17 0.16 64 1013.4
20260506112824 44 267 0.0 3.0 0.00 0.17 0.16 65 1013.4
20260506111654 44 265 0.0 0.0 0.00 0.17 0.16 64 1013.2
20260506111140 44 265 0.0 0.0 0.00 0.17 0.16 63 1013.1
20260506110639 44 222 0.0 6.0 0.00 0.17 0.16 62 1013.2
20260506110134 44 353 0.0 6.0 0.00 0.17 0.16 62 1013.2
20260506105637 44 197 1.0 10.0 0.00 0.17 0.16 61 1013.0
20260506105121 44 89 2.0 10.0 0.00 0.17 0.16 62 1013.1
20260506104001 45 67 3.0 13.0 0.00 0.17 0.16 60 1013.2
20260506103452 45 35 4.0 13.0 0.00 0.17 0.16 60 1013.0
20260506103002 45 14 3.0 13.0 0.00 0.18 0.16 60 1013.0
20260506102507 45 121 2.0 12.0 0.00 0.18 0.16 61 1012.9
20260506102006 45 78 2.0 9.0 0.00 0.18 0.16 60 1012.8
20260506100829 45 168 1.0 10.0 0.00 0.18 0.16 63 1012.7
20260506100315 45 80 1.0 10.0 0.00 0.18 0.16 63 1012.4
20260506095808 44 81 1.0 10.0 0.00 0.18 0.16 65 1012.3
20260506095248 44 61 1.0 8.0 0.00 0.18 0.16 67 1012.1
20260506094757 44 116 1.0 8.0 0.00 0.18 0.16 66 1012.1
20260506094250 44 38 2.0 8.0 0.00 0.18 0.16 68 1011.7
20260506093747 44 22 2.0 8.0 0.00 0.18 0.16 70 1011.7
20260506093251 44 17 1.0 8.0 0.00 0.18 0.16 70 1011.6
20260506092124 43 4 2.0 7.0 0.00 0.18 0.16 74 1011.4
20260506091622 43 101 1.0 7.0 0.00 0.18 0.16 78 1011.2
20260506091114 42 116 1.0 7.0 0.00 0.18 0.16 80 1011.2
20260506090605 42 156 1.0 7.0 0.04 0.18 0.16 83 1011.0
20260506090115 42 68 1.0 7.0 0.05 0.18 0.16 83 1011.0
20260506085620 42 133 1.0 7.0 0.09 0.18 0.16 84 1010.8
20260506085116 42 99 1.0 7.0 0.09 0.16 0.16 84 1010.9
20260506084601 43 221 1.0 10.0 0.12 0.16 0.15 84 1010.8
20260506084107 43 82 1.0 10.0 0.20 0.16 0.13 83 1010.4
20260506083613 44 30 3.0 17.0 0.38 0.14 0.13 81 1010.3
20260506083111 45 119 4.0 17.0 0.25 0.11 0.10 78 1010.1
20260506082555 47 357 5.0 17.0 0.74 0.08 0.08 74 1009.8
20260506082050 51 80 2.0 17.0 0.63 0.03 0.02 71 1009.6
20260506081552 52 334 0.0 5.0 0.00 0.02 0.00 74 1009.0
20260506080411 52 178 0.0 0.0 0.00 0.02 0.00 73 1008.2
20260506073257 52 249 0.0 0.0 0.00 0.02 0.00 69 1008.2
20260506072806 52 249 0.0 0.0 0.00 0.02 0.00 69 1008.1
20260506072250 52 275 0.0 2.0 0.00 0.02 0.00 69 1008.1
20260506071759 53 301 0.0 0.0 0.00 0.02 0.00 68 1008.3
20260506070640 53 204 0.0 1.0 0.00 0.02 0.00 67 1008.2